Location: Capvern
(43.1036°N, 0.3160°E)
Time: 23:50:10
(UTC+00:00)

ATLAS 5 CENTAUR R/B - Pass Details

Date: 16 October 2021
Orbit: 497 x 1159 km, 63.4° (Epoch: 25 November)

Event Time Altitude Azimuth Distance (km) Brightness Sun altitude
Rises 18:38:21 0° 207° (SSW) 2,573 5.1 -16.1°
Reaches altitude 10° 18:40:26 10° 204° (SSW) 1,712 4.1 -16.5°
Maximum altitude 18:44:09 63° 123° (ESE) 596 1.2 -17.2°
Enters shadow 18:46:05 29° 50° (NE) 1,038 2.3 -17.5°
